CAPE
0 0 0 0 0 0 0 0 0 0 0 0 0 0 0 0 0 0 0 0 0 0 10 138 124 282 376 103 34 9 0 0 0 0 0 0 0 0 0 0 0 0 0 0 0 2 6 180 151
0 0 0 0 0 0 0 0 0 0 0 0 0 0 0 0 0 0 0 0 0 0 9 82 176 147 40 7 0 0 0 0 0 0 0 0 0 0 0 0 0 0 0 0 0 0 0 0 7
0 0 0 0 0 0 0 0 0 0 0 0 0 0 0 0 0 0 0 0 0 0 4 1 7 3 1 0 0 0 0 0 0 0 0 0 0 0 0 0 0 0 0 0 0 0 0 0 0
0 0 0 0 0 0 0 0 0 0 0 0 0 0 0 0 0 0 0 0 0 0 1 0 0 0 0 0 0 0 0 0 0 0 0 0 0 0 0 0 0 0 0 0 0 0 0 0 0
0 0 0 0 0 0 0 0 0 0 0 0 0 0 0 0 0 0 0 0 0 1 1 1 0 0 0 0 0 0 0 0 0 0 0 0 0 0 0 0 0 0 0 0 0 1 2 2 1
0 0 0 0 0 0 0 0 0 0 0 0 0 0 0 0 0 0 0 0 0 0 3 3 0 0 0 0 0 0 0 0 0 0 0 0 0 0 0 0 0 0 0 0 1 4 4 4 5
0 0 0 0 0 0 0 0 0 0 0 0 0 0 0 0 0 0 0 0 0 0 0 0 0 0 0 0 0 0 0 0 0 0 0 0 0 0 0 0 0 0 0 0 0 1 1 2 2
0 0 0 0 0 0 0 0 0 0 0 0 0 0 0 0 0 0 0 0 0 0 0 0 0 0 0 0 0 0 0 0 0 0 0 0 0 0 0 0 0 0 0 0 0 0 0 3 3
0 0 0 0 0 0 0 0 0 0 0 0 0 0 0 0 0 0 0 0 0 0 0 0 0 0 0 0 0 0 0 0 0 0 0 0 0 0 0 0 0 0 0 0 0 0 0 0 0
0 0 0 0 0 0 0 0 0 0 0 0 0 0 0 0 0 0 0 0 0 0 0 0 0 0 0 0 0 0 0 0 0 0 0 0 0 0 0 0 0 0 0 0 0 0 0 0 2
0 0 0 0 0 0 0 0 0 0 0 0 0 0 0 0 0 0 0 0 0 0 0 0 0 0 0 0 0 0 0 0 0 0 0 0 0 0 0 0 2 1 0 1 0 2 5 9 8
0 0 0 0 0 0 0 0 0 0 0 0 0 0 0 0 0 0 0 0 0 0 0 0 0 0 0 0 0 0 0 0 0 0 0 0 0 0 0 0 2 2 0 0 2 7 8 3 4
0 0 0 0 0 0 0 0 0 0 0 0 0 0 0 0 0 0 0 0 0 0 0 0 0 0 0 0 0 0 0 0 0 0 0 0 0 0 0 0 2 2 0 1 3 2 3 14 24
0 0 0 0 0 0 0 0 0 0 0 0 0 0 0 0 0 0 0 0 0 0 0 0 0 0 0 0 0 0 0 0 0 0 0 0 0 0 1 1 2 0 0 0 5 7 4 3 17
0 0 0 0 0 0 0 0 0 0 0 0 0 0 0 0 0 0 0 0 0 0 0 0 0 0 0 0 0 0 0 0 0 0 0 0 1 4 3 2 1 0 0 2 13 2 0 0 1
0 0 0 0 0 0 0 0 0 0 0 0 0 0 0 0 0 0 0 0 0 0 0 0 0 0 0 0 0 0 0 0 0 0 0 2 3 2 1 1 0 0 3 1 3 0 0 1 1
0 0 0 0 0 0 0 0 0 0 0 0 0 0 0 0 0 0 0 0 0 0 0 0 0 0 0 0 0 0 0 0 0 0 1 1 0 0 1 0 0 1 1 4 7 1 1 0 0
0 0 0 0 0 0 0 0 0 0 0 0 0 0 0 0 0 0 0 0 0 0 0 0 0 0 0 0 0 0 0 0 0 0 0 0 0 0 0 0 1 0 4 1 1 0 0 3 0
0 0 0 0 0 0 0 0 0 0 0 0 0 0 0 0 0 0 0 0 0 0 0 0 0 0 0 0 0 0 0 0 0 0 0 0 0 0 0 2 0 0 1 1 2 0 0 0 2
0 0 0 0 0 0 0 0 0 0 0 0 0 0 0 0 0 0 0 0 0 0 0 0 0 0 0 0 0 0 0 0 0 0 0 0 0 0 0 1 0 0 0 5 2 0 0 4 0
0 0 0 0 0 0 0 0 0 0 0 0 0 0 0 0 0 0 0 0 0 0 0 0 0 0 0 0 0 0 0 0 0 0 0 0 0 0 0 1 5 2 4 5 3 0 1 6 0
0 0 0 0 0 0 0 0 0 0 0 0 0 0 0 0 0 0 0 0 0 0 0 0 0 0 0 0 0 0 0 0 0 0 0 0 0 0 0 1 0 9 3 5 8 0 0 5 0
0 0 0 0 0 0 0 0 0 0 0 0 0 0 0 0 0 0 0 0 0 0 0 0 0 0 0 0 0 0 0 0 0 0 0 0 0 0 0 0 0 0 5 2 3 4 1 0 0
0 0 0 0 0 0 0 0 0 0 0 0 0 0 0 0 0 0 0 0 0 0 0 0 0 0 0 0 0 1 2 1 0 0 0 0 0 0 0 3 1 1 1 1 2 5 1 3 0
0 0 0 0 0 0 0 0 0 0 0 0 0 0 0 0 0 0 0 0 0 0 0 0 0 0 0 0 1 1 2 0 0 1 2 3 2 1 2 0 1 4 0 0 1 1 6 10 0
0 0 0 0 0 0 0 0 0 0 0 0 0 0 0 0 0 0 0 0 0 0 0 0 0 0 0 0 0 1 2 0 0 0 0 0 0 0 0 0 0 0 1 0 0 0 2 7 1
0 0 0 0 0 0 0 0 0 0 0 0 0 0 0 0 0 0 0 0 0 0 0 0 0 0 0 0 0 0 2 1 0 0 0 1 2 2 2 2 13 7 1 0 0 0 0 1 2
0 0 0 0 0 0 0 0 0 0 0 0 0 0 0 0 0 0 0 0 0 0 0 0 0 0 0 0 0 0 0 1 2 1 0 0 0 0 0 4 11 3 0 1 1 0 1 0 1
0 0 0 0 0 0 0 0 0 0 0 0 0 0 0 0 0 0 0 0 0 0 0 0 0 0 0 0 0 0 0 1 1 2 0 0 0 0 0 0 2 9 3 1 2 2 1 1 0
0 0 0 0 0 0 0 0 0 0 0 0 0 0 0 0 0 0 0 0 0 0 0 0 0 0 0 0 0 0 0 0 0 2 1 0 0 0 0 0 2 3 7 1 0 0 4 3 2
CIN
-0 -0 -0 -0 -0 -0 -0 -0 -0 -0 -0 -0 -0 -0 -0 -0 -0 -0 -0 -0 -0 -0 -231 -130 -106 -60 -34 -137 -255 -324 -0 -0 -0 -0 -0 -0 -0 -0 -0 -0 -0 -0 -0 -0 -0 -0 -20 -67 -42
-0 -0 -0 -0 -0 -0 -0 -0 -0 -0 -0 -0 -0 -0 -0 -0 -0 -0 -0 -0 -0 -0 -174 -100 -112 -100 -203 -180 -0 -0 -0 -0 -0 -0 -0 -0 -0 -0 -0 -0 -0 -0 -0 -0 -0 -0 -0 -0 -139
-0 -0 -0 -0 -0 -0 -0 -0 -0 -0 -0 -0 -0 -0 -0 -0 -0 -0 -0 -0 -0 -0 -180 -70 -272 -214 -4 -0 -0 -0 -0 -0 -0 -0 -0 -0 -0 -0 -0 -0 -0 -0 -0 -0 -0 -0 -0 -0 -0
-0 -0 -0 -0 -0 -0 -0 -0 -0 -0 -0 -0 -0 -0 -0 -0 -0 -0 -0 -0 -0 -0 -0 -0 -3 -2 -0 -0 -0 -0 -0 -0 -0 -0 -0 -0 -0 -0 -0 -0 -0 -0 -0 -0 -0 -0 -0 -0 -0
-0 -0 -0 -0 -0 -0 -0 -0 -0 -0 -0 -0 -0 -0 -0 -0 -0 -0 -0 -0 -0 -1 -0 -3 -0 -0 -0 -0 -0 -0 -0 -0 -0 -0 -0 -0 -0 -0 -0 -0 -0 -0 -0 -0 -0 -0 -0 -0 -0
-0 -0 -0 -0 -0 -0 -0 -0 -0 -0 -0 -0 -0 -0 -0 -0 -0 -0 -0 -0 -0 -0 -0 -0 -0 -0 -0 -0 -0 -0 -0 -0 -0 -0 -0 -0 -0 -0 -0 -0 -0 -0 -0 -0 -0 -0 -0 -1 -0
-0 -0 -0 -0 -0 -0 -0 -0 -0 -0 -0 -0 -0 -0 -0 -0 -0 -0 -0 -0 -0 -0 -0 -0 -0 -0 -0 -0 -0 -0 -0 -0 -0 -0 -0 -0 -0 -0 -0 -0 -0 -0 -0 -0 -0 -0 -1 -0 -0
-0 -0 -0 -0 -0 -0 -0 -0 -0 -0 -0 -0 -0 -0 -0 -0 -0 -0 -0 -0 -0 -0 -0 -0 -0 -0 -0 -0 -0 -0 -0 -0 -0 -0 -0 -0 -0 -0 -0 -0 -0 -0 -0 -0 -0 -0 -0 -0 -0
-0 -0 -0 -0 -0 -0 -0 -0 -0 -0 -0 -0 -0 -0 -0 -0 -0 -0 -0 -0 -0 -0 -0 -0 -0 -0 -0 -0 -0 -0 -0 -0 -0 -0 -0 -0 -0 -0 -0 -0 -0 -0 -0 -0 -0 -0 -0 -0 -0
-0 -0 -0 -0 -0 -0 -0 -0 -0 -0 -0 -0 -0 -0 -0 -0 -0 -0 -0 -0 -0 -0 -0 -0 -0 -0 -0 -0 -0 -0 -0 -0 -0 -0 -0 -0 -0 -0 -0 -0 -0 -0 -0 -0 -0 -0 -0 -0 -0
-0 -0 -0 -0 -0 -0 -0 -0 -0 -0 -0 -0 -0 -0 -0 -0 -0 -0 -0 -0 -0 -0 -0 -0 -0 -0 -0 -0 -0 -0 -0 -0 -0 -0 -0 -0 -0 -0 -0 -0 -0 -0 -0 -0 -1 -0 -1 -2 -3
-0 -0 -0 -0 -0 -0 -0 -0 -0 -0 -0 -0 -0 -0 -0 -0 -0 -0 -0 -0 -0 -0 -0 -0 -0 -0 -0 -0 -0 -0 -0 -0 -0 -0 -0 -0 -0 -0 -0 -0 -0 -0 -0 -0 -0 -1 -1 -2 -0
-0 -0 -0 -0 -0 -0 -0 -0 -0 -0 -0 -0 -0 -0 -0 -0 -0 -0 -0 -0 -0 -0 -0 -0 -0 -0 -0 -0 -0 -0 -0 -0 -0 -0 -0 -0 -0 -0 -1 -0 -0 -0 -0 -0 -0 -4 -2 -1 -1
-0 -0 -0 -0 -0 -0 -0 -0 -0 -0 -0 -0 -0 -0 -0 -0 -0 -0 -0 -0 -0 -0 -0 -0 -0 -0 -0 -0 -0 -0 -0 -0 -0 -0 -0 -0 -0 -0 -1 -1 -0 -0 -0 -0 -0 -4 -0 -0 -0
-0 -0 -0 -0 -0 -0 -0 -0 -0 -0 -0 -0 -0 -0 -0 -0 -0 -0 -0 -0 -0 -0 -0 -0 -0 -0 -0 -0 -0 -0 -0 -0 -0 -0 -0 -0 -0 -0 -0 -0 -0 -0 -0 -1 -1 -1 -0 -0 -0
-0 -0 -0 -0 -0 -0 -0 -0 -0 -0 -0 -0 -0 -0 -0 -0 -0 -0 -0 -0 -0 -0 -0 -0 -0 -0 -0 -0 -0 -0 -0 -0 -0 -0 -0 -0 -0 -0 -1 -1 -0 -0 -2 -1 -0 -0 -3 -1 -2
-0 -0 -0 -0 -0 -0 -0 -0 -0 -0 -0 -0 -0 -0 -0 -0 -0 -0 -0 -0 -0 -0 -0 -0 -0 -0 -0 -0 -0 -0 -0 -0 -0 -0 -0 -0 -0 -0 -0 -0 -0 -0 -0 -1 -0 -7 -0 -0 -0
-0 -0 -0 -0 -0 -0 -0 -0 -0 -0 -0 -0 -0 -0 -0 -0 -0 -0 -0 -0 -0 -0 -0 -0 -0 -0 -0 -0 -0 -0 -0 -0 -0 -0 -0 -0 -0 -0 -0 -0 -0 -0 -3 -0 -0 -0 -0 -1 -0
-0 -0 -0 -0 -0 -0 -0 -0 -0 -0 -0 -0 -0 -0 -0 -0 -0 -0 -0 -0 -0 -0 -0 -0 -0 -0 -0 -0 -0 -0 -0 -0 -0 -0 -0 -0 -0 -0 -0 -0 -0 -1 -0 -0 -0 -0 -0 -2 -2
-0 -0 -0 -0 -0 -0 -0 -0 -0 -0 -0 -0 -0 -0 -0 -0 -0 -0 -0 -0 -0 -0 -0 -0 -0 -0 -0 -0 -0 -0 -0 -0 -0 -0 -0 -0 -0 -0 -0 -1 -0 -0 -0 -0 -0 -0 -3 -15 -0
-0 -0 -0 -0 -0 -0 -0 -0 -0 -0 -0 -0 -0 -0 -0 -0 -0 -0 -0 -0 -0 -0 -0 -0 -0 -0 -0 -0 -0 -0 -0 -0 -0 -0 -0 -0 -0 -0 -0 -0 -6 -4 -0 -0 -3 -0 -4 -3 -0
-0 -0 -0 -0 -0 -0 -0 -0 -0 -0 -0 -0 -0 -0 -0 -0 -0 -0 -0 -0 -0 -0 -0 -0 -0 -0 -0 -0 -0 -0 -0 -0 -0 -0 -0 -0 -0 -0 -0 -0 -2 -1 -5 -3 -2 -0 -0 -0 -0
-0 -0 -0 -0 -0 -0 -0 -0 -0 -0 -0 -0 -0 -0 -0 -0 -0 -0 -0 -0 -0 -0 -0 -0 -0 -0 -0 -0 -0 -0 -0 -0 -0 -0 -0 -0 -0 -0 -0 -0 -0 -0 -1 -4 -8 -2 -0 -0 -0
-0 -0 -0 -0 -0 -0 -0 -0 -0 -0 -0 -0 -0 -0 -0 -0 -0 -0 -0 -0 -0 -0 -0 -0 -0 -0 -0 -0 -0 -0 -0 -0 -0 -0 -0 -0 -0 -0 -0 -0 -2 -2 -0 -2 -1 -1 -3 -0 -0
-0 -0 -0 -0 -0 -0 -0 -0 -0 -0 -0 -0 -0 -0 -0 -0 -0 -0 -0 -0 -0 -0 -0 -0 -0 -0 -0 -0 -0 -0 -0 -0 -0 -0 -0 -0 -0 -0 -0 -0 -1 -1 -0 -0 -1 -0 -6 -0 -0
-0 -0 -0 -0 -0 -0 -0 -0 -0 -0 -0 -0 -0 -0 -0 -0 -0 -0 -0 -0 -0 -0 -0 -0 -0 -0 -0 -0 -0 -0 -0 -0 -0 -0 -0 -0 -1 -2 -0 -0 -0 -2 -1 -0 -0 -0 -0 -1 -0
-0 -0 -0 -0 -0 -0 -0 -0 -0 -0 -0 -0 -0 -0 -0 -0 -0 -0 -0 -0 -0 -0 -0 -0 -0 -0 -0 -0 -0 -0 -0 -0 -0 -0 -0 -3 -0 -1 -3 -5 -0 -2 -2 -0 -0 -0 -1 -0 -0
-0 -0 -0 -0 -0 -0 -0 -0 -0 -0 -0 -0 -0 -0 -0 -0 -0 -0 -0 -0 -0 -0 -0 -0 -0 -0 -0 -0 -0 -0 -0 -0 -0 -0 -0 -0 -4 -4 -5 -2 -0 -7 -11 -3 -0 -0 -0 -0 -0
-0 -0 -0 -0 -0 -0 -0 -0 -0 -0 -0 -0 -0 -0 -0 -0 -0 -0 -0 -0 -0 -0 -0 -0 -0 -0 -0 -0 -0 -0 -0 -0 -0 -0 -0 -0 -0 -0 -0 -2 -5 -0 -4 -4 -2 -0 -0 -1 -0
-0 -0 -0 -0 -0 -0 -0 -0 -0 -0 -0 -0 -0 -0 -0 -0 -0 -0 -0 -0 -0 -0 -0 -0 -0 -0 -0 -0 -0 -0 -0 -0 -0 -0 -1 -0 -0 -0 -0 -0 -0 -4 -0 -2 -5 -0 -2 -2 -1
Wind_Speed
22 21 19 19 21 22 24 19 17 13 13 10 14 11 15 16 16 14 14 14 12 12 12 12 11 11 12 12 12 14 15 15 16 17 19 20 20 21 22 23 24 25 26 26 25 25 25 26 26
20 19 19 19 22 22 20 18 15 13 13 13 11 12 12 15 16 15 14 13 11 12 12 11 11 11 12 12 13 13 14 15 16 17 19 20 21 22 22 23 24 25 26 26 27 27 27 27 27
20 20 19 20 24 23 19 16 14 14 16 10 11 14 15 15 16 16 15 12 12 12 11 11 10 11 13 13 13 13 14 16 17 18 20 21 22 22 23 24 24 25 26 27 27 27 28 28 29
19 18 21 23 22 23 18 12 14 15 15 14 17 12 13 16 16 16 13 12 12 11 11 10 10 11 11 12 13 13 15 16 18 20 21 21 22 23 24 24 26 27 27 28 29 29 29 29 30
20 20 23 24 23 20 20 18 18 15 14 12 10 13 14 15 15 14 12 11 11 11 10 10 10 11 11 11 12 13 15 17 19 21 21 21 22 22 23 24 26 27 28 29 29 29 30 31 30
19 20 23 26 20 19 19 18 17 18 15 11 13 14 14 15 14 13 12 12 11 11 10 10 10 10 11 12 12 14 15 17 20 21 21 21 20 21 22 23 24 27 28 28 29 29 29 27 27
23 22 25 24 21 20 19 17 17 17 15 11 14 15 15 13 14 13 12 12 11 10 10 10 10 10 11 12 12 13 15 17 20 21 21 20 19 20 22 23 24 26 28 28 28 28 25 26 28
22 22 24 23 22 21 16 17 18 16 15 17 15 15 14 13 13 12 12 11 10 9 9 9 9 9 10 11 12 14 16 18 19 21 21 18 17 17 19 20 22 26 25 25 25 24 26 26 26
20 23 26 23 20 20 16 18 17 17 17 13 13 13 13 12 12 11 10 9 9 8 8 8 8 9 10 11 12 14 15 17 19 19 16 17 18 20 22 24 24 23 22 23 21 23 24 25 25
20 24 24 19 20 20 19 19 17 18 16 16 14 12 13 10 10 9 8 7 7 7 7 7 7 8 10 12 12 13 16 17 20 20 20 20 20 20 21 19 20 20 19 19 19 22 23 22 23
21 23 23 21 21 22 22 21 18 19 18 16 14 17 12 10 10 8 7 7 6 6 7 7 7 8 9 12 13 14 17 19 21 21 21 20 20 21 22 23 23 22 21 21 24 25 25 26 22
24 26 25 20 21 22 23 22 22 21 19 21 22 22 17 13 12 9 7 7 7 6 7 7 7 7 9 11 13 15 18 21 22 22 21 20 21 21 22 23 20 20 21 22 23 24 24 22 20
25 23 20 24 22 24 27 28 29 28 25 29 24 19 21 17 17 12 10 9 6 5 5 6 6 7 8 11 14 16 20 22 24 21 20 20 21 20 21 22 21 20 20 22 23 22 22 24 25
19 26 25 20 21 22 24 29 22 22 16 22 19 18 17 19 18 15 12 11 6 5 4 5 6 6 9 11 14 16 20 23 23 22 21 21 20 19 20 21 21 19 20 22 22 24 25 24 23
20 25 20 20 19 20 20 27 18 22 19 22 20 18 18 19 18 17 16 15 9 5 3 4 5 6 9 12 14 17 20 22 23 22 21 21 20 19 19 20 20 19 20 21 23 24 23 22 22
21 22 25 15 17 17 16 20 13 15 16 20 23 22 18 20 21 23 24 22 16 8 3 4 6 6 8 11 14 17 21 22 22 22 21 21 20 18 19 20 20 20 20 20 22 23 24 21 23
21 25 23 19 16 17 16 19 16 16 24 26 27 24 23 24 23 24 27 27 20 11 6 5 6 7 8 10 13 16 20 21 21 22 21 21 19 18 19 20 21 20 20 21 23 22 23 23 25
25 25 23 22 18 19 20 24 26 27 28 26 24 24 22 22 24 25 26 24 17 11 7 6 7 8 10 11 13 16 19 20 21 21 21 20 19 18 19 20 21 18 18 20 22 23 23 25 26
20 23 25 21 19 22 23 26 29 29 22 22 22 23 23 24 24 24 23 21 16 12 8 7 7 9 11 13 14 16 18 19 20 21 20 19 18 18 19 20 20 19 18 19 19 21 21 23 17
25 24 24 21 21 22 25 31 25 18 18 20 22 23 24 24 24 23 21 19 16 12 10 9 9 9 12 14 16 17 18 18 19 20 19 18 17 18 19 20 19 18 18 18 19 19 20 21 24
30 30 27 27 25 26 29 28 20 16 17 20 21 22 23 24 24 23 20 18 15 13 11 11 11 13 15 16 16 18 18 17 17 18 17 16 16 17 18 18 18 17 17 17 16 18 18 18 19
29 25 27 27 26 30 23 27 22 19 19 22 23 23 24 24 23 21 19 17 15 13 12 12 13 15 17 18 19 20 21 21 19 18 17 15 15 16 17 17 16 17 16 15 14 14 15 16 19
23 21 23 24 26 28 26 26 23 21 23 25 24 24 24 23 22 20 18 15 14 14 14 14 15 17 19 20 20 21 20 20 19 17 16 14 14 15 17 16 15 16 14 13 12 13 14 15 17
15 16 18 20 23 32 25 25 23 23 24 26 24 23 23 22 21 18 17 15 15 15 16 16 17 19 20 21 22 22 21 21 19 18 17 15 13 14 15 15 14 13 14 12 12 12 11 13 13
19 18 25 28 29 31 23 25 25 19 20 22 23 22 22 21 20 19 18 17 17 17 18 18 19 21 22 22 23 22 22 21 20 20 19 18 16 15 14 14 14 13 12 12 11 9 11 12 12
23 23 26 29 28 27 22 27 24 18 19 19 20 20 20 20 20 19 19 18 18 19 20 20 21 22 23 24 24 23 22 22 21 20 19 19 18 17 16 14 14 13 12 11 11 10 9 13 13
24 28 23 24 24 28 24 23 20 16 18 18 19 19 20 20 20 20 19 19 20 21 22 23 23 24 24 25 25 24 23 23 22 21 19 19 20 20 21 18 17 15 13 12 12 12 12 11 15
20 18 26 26 32 33 28 28 27 21 21 19 19 19 19 19 19 20 20 21 21 22 23 23 24 25 26 26 26 25 25 24 24 23 22 21 21 20 20 20 20 18 15 13 14 15 16 16 15
24 24 23 23 27 29 30 27 23 19 19 18 19 19 19 19 20 20 20 21 22 22 23 24 25 26 27 27 27 27 26 26 26 25 25 23 21 21 20 20 20 20 19 16 17 17 18 19 19
26 27 24 29 31 29 30 29 18 16 16 16 17 18 19 19 19 21 22 22 22 23 24 25 26 27 28 28 27 27 27 27 27 28 27 26 25 23 21 21 22 21 21 21 20 20 21 21 21
Wind_Direction
254 259 262 259 250 250 248 261 265 276 276 294 274 331 334 344 355 21 23 21 42 67 74 79 67 55 48 35 23 1 354 357 352 349 345 341 344 345 343 340 337 333 331 330 329 327 324 323 321
256 258 260 261 251 253 260 261 271 274 279 276 320 336 19 10 360 10 23 24 59 67 66 58 51 44 32 19 8 10 3 2 359 355 348 344 344 344 344 341 339 337 334 331 327 324 322 318 318
253 251 258 260 253 252 264 271 272 272 264 310 324 310 338 358 359 4 10 50 71 68 63 35 44 23 7 12 15 16 5 359 357 353 345 342 345 345 344 343 341 338 334 331 329 326 322 318 314
252 260 261 256 258 256 268 285 275 275 279 287 283 348 349 337 350 352 35 58 68 64 63 39 29 24 27 19 12 13 5 357 352 348 346 349 348 347 345 344 341 338 336 332 329 325 322 318 313
248 257 254 255 258 265 265 273 273 279 293 304 333 343 355 353 358 12 38 59 70 64 57 46 36 30 31 20 18 14 4 358 351 347 349 350 350 350 349 346 344 341 337 334 331 329 325 319 315
253 257 254 251 262 268 270 276 276 275 287 322 325 340 355 355 14 27 47 66 72 65 64 55 48 36 21 14 14 12 5 356 348 346 350 355 358 356 353 351 347 343 341 340 336 332 329 329 324
251 251 252 256 263 268 270 278 276 284 294 324 328 333 347 9 10 37 53 69 69 59 65 66 66 40 12 11 15 14 8 357 351 352 354 1 2 358 354 351 349 347 345 343 341 338 339 333 325
253 257 254 258 262 266 278 279 274 287 302 303 319 319 331 352 19 38 57 61 62 63 77 68 65 50 33 19 15 11 1 357 356 354 359 7 5 4 1 357 356 350 349 348 347 346 342 339 332
257 254 253 257 264 273 282 280 283 292 297 317 326 330 334 3 19 33 52 56 62 74 82 74 58 40 17 15 16 10 5 359 357 0 14 12 8 4 2 358 355 354 355 354 355 351 348 343 337
252 254 260 269 270 272 275 280 289 294 304 305 318 330 326 2 7 20 36 47 64 85 85 80 61 36 17 10 13 14 4 360 354 360 6 8 8 8 5 5 4 5 4 5 2 359 355 353 351
255 256 264 270 273 272 275 282 292 298 300 308 321 318 324 347 347 7 29 33 77 73 81 93 71 33 23 6 5 5 355 352 352 359 5 9 11 11 10 7 8 9 10 10 5 4 2 358 358
256 257 265 276 273 275 274 284 285 293 297 304 302 304 315 331 331 346 5 17 38 72 87 86 77 35 18 6 4 358 349 348 349 358 7 10 12 13 13 13 14 15 16 13 11 11 11 16 21
257 264 274 271 278 278 276 278 282 287 292 281 296 308 305 317 318 330 342 357 31 55 79 81 79 48 19 2 356 351 339 343 344 0 8 11 12 17 17 16 18 21 23 18 17 22 24 26 28
272 264 271 281 278 283 282 277 290 296 304 291 308 312 316 310 312 321 335 346 21 35 70 85 77 55 16 359 351 350 340 340 348 359 6 11 15 20 20 19 22 26 30 21 24 22 30 36 41
272 268 276 276 283 284 289 276 289 294 296 291 308 319 319 306 309 312 317 326 351 6 41 65 61 52 22 359 352 345 340 342 348 359 7 11 16 21 23 23 27 31 31 29 29 32 39 46 51
265 270 265 279 281 286 289 281 307 308 305 299 300 312 321 305 305 303 302 311 326 345 16 18 28 45 32 6 353 344 337 341 349 357 5 10 17 25 28 29 33 36 35 40 37 43 46 53 52
261 262 262 275 284 285 281 287 299 303 295 292 295 307 306 298 306 307 304 299 311 330 347 359 6 28 30 20 1 348 343 346 353 358 4 8 20 29 34 34 35 42 46 46 44 52 47 55 54
255 259 268 269 283 283 286 281 283 289 290 295 299 304 312 309 310 311 311 312 319 334 352 10 358 6 10 17 11 356 348 350 355 359 3 13 23 34 38 36 35 47 52 49 49 51 53 50 59
264 265 268 276 286 287 285 283 284 288 294 300 307 308 309 307 313 318 320 322 329 340 357 8 0 355 356 359 1 356 351 353 356 360 6 16 26 33 35 33 37 50 53 48 54 59 61 48 75
261 264 267 277 283 288 286 280 289 292 298 306 308 310 310 308 313 319 323 326 332 339 353 1 359 356 350 352 349 352 353 354 357 2 8 19 28 30 33 34 39 47 52 53 59 56 61 56 48
258 261 266 274 283 285 282 279 281 285 304 310 314 316 316 315 312 318 323 329 336 338 345 356 350 346 345 349 352 351 353 358 3 7 13 19 28 29 31 33 39 43 51 54 57 58 60 64 59
257 265 265 271 275 274 280 274 277 282 289 307 309 312 317 318 317 319 324 330 335 338 349 354 348 343 341 339 338 337 336 339 351 4 11 21 27 28 28 33 41 37 45 53 56 57 60 62 52
261 266 264 269 270 276 275 279 282 283 281 296 307 311 317 318 318 320 327 335 337 338 339 345 343 338 335 335 337 334 337 342 354 3 11 21 25 25 27 31 37 31 38 47 54 55 56 58 43
262 267 271 273 273 269 273 275 278 283 285 291 307 313 316 316 319 328 330 332 334 334 334 333 333 333 334 334 333 332 332 336 344 353 360 10 18 21 23 28 34 35 29 40 50 43 55 49 55
254 256 264 265 264 267 276 273 279 292 298 300 304 312 315 318 319 323 324 323 324 325 326 326 327 328 328 330 328 329 327 332 338 340 343 348 355 3 12 19 21 23 23 23 35 47 36 33 32
249 255 262 265 266 270 277 273 279 297 303 309 314 317 319 320 321 321 321 321 321 322 323 323 323 326 327 327 325 328 329 328 331 335 338 342 344 347 357 5 9 12 13 13 15 20 23 3 8
256 256 270 272 277 274 275 280 289 298 306 312 318 322 325 326 322 320 321 321 320 321 321 321 322 323 325 324 325 325 329 329 329 331 336 334 337 336 333 343 347 353 356 359 358 351 349 355 343
268 267 264 267 266 268 274 278 280 284 294 304 311 316 321 326 330 328 325 323 324 325 323 324 325 323 324 323 322 322 323 326 326 328 328 329 330 333 335 332 332 338 339 338 340 335 331 331 336
261 265 271 276 272 272 274 279 290 290 293 300 306 313 318 323 327 330 331 330 329 330 329 327 326 324 324 323 322 321 322 325 325 324 323 326 328 330 331 331 328 327 326 333 326 325 323 320 321
265 266 264 268 270 274 278 279 299 301 303 305 307 312 318 324 328 329 330 332 334 333 332 331 329 328 327 326 325 325 323 323 323 322 322 323 323 326 325 323 323 320 318 317 317 316 315 314 313